Time,TemperatureF,DewpointF,PressureIn,WindDirection,WindDirectionDegrees,WindSpeedMPH,WindSpeedGustMPH,Humidity,HourlyPrecipIn,Conditions,Clouds,dailyrainin,SoftwareType,DateUTC
2013-09-23 00:05:00,49.7,43.0,30.10,WSW,242,1.0,2.0,77,0.00,,,0.00,weatherlink.com 1.10,2013-09-23 04:05:00,
2013-09-23 00:20:00,49.6,43.0,30.10,WSW,245,0.0,1.0,78,0.00,,,0.00,weatherlink.com 1.10,2013-09-23 04:20:00,
2013-09-23 00:35:00,49.4,44.0,30.09,SW,224,0.0,1.0,80,0.00,,,0.00,weatherlink.com 1.10,2013-09-23 04:35:00,
2013-09-23 00:50:00,49.5,43.0,30.10,WSW,253,0.0,1.0,79,0.00,,,0.00,weatherlink.com 1.10,2013-09-23 04:50:00,
2013-09-23 01:05:00,49.4,44.0,30.10,SW,232,1.0,2.0,80,0.00,,,0.00,weatherlink.com 1.10,2013-09-23 05:05:00,
2013-09-23 01:20:00,49.4,44.0,30.10,SW,217,0.0,1.0,81,0.00,,,0.00,weatherlink.com 1.10,2013-09-23 05:20:00,
2013-09-23 01:35:00,49.4,44.0,30.10,SW,231,0.0,1.0,81,0.00,,,0.00,weatherlink.com 1.10,2013-09-23 05:35:00,
2013-09-23 01:50:00,49.4,44.0,30.10,WSW,245,1.0,2.0,80,0.00,,,0.00,weatherlink.com 1.10,2013-09-23 05:50:00,
2013-09-23 02:05:00,49.5,43.0,30.10,WSW,245,1.0,1.0,79,0.00,,,0.00,weatherlink.com 1.10,2013-09-23 06:05:00,
2013-09-23 02:20:00,49.6,44.0,30.11,WNW,284,1.0,2.0,81,0.00,,,0.00,weatherlink.com 1.10,2013-09-23 06:20:00,
2013-09-23 02:35:00,49.7,43.0,30.11,West,279,2.0,2.0,79,0.00,,,0.00,weatherlink.com 1.10,2013-09-23 06:35:00,
2013-09-23 02:50:00,49.8,44.0,30.12,West,267,1.0,2.0,80,0.00,,,0.00,weatherlink.com 1.10,2013-09-23 06:50:00,
2013-09-23 03:05:00,49.7,44.0,30.12,West,271,0.0,2.0,80,0.00,,,0.00,weatherlink.com 1.10,2013-09-23 07:05:00,
2013-09-23 03:20:00,49.9,43.0,30.12,West,263,2.0,2.0,78,0.00,,,0.00,weatherlink.com 1.10,2013-09-23 07:20:00,
2013-09-23 03:35:00,49.9,43.0,30.12,WSW,257,1.0,3.0,78,0.00,,,0.00,weatherlink.com 1.10,2013-09-23 07:35:00,
2013-09-23 03:50:00,49.6,44.0,30.12,South,176,1.0,2.0,80,0.00,,,0.00,weatherlink.com 1.10,2013-09-23 07:50:00,
2013-09-23 04:05:00,49.6,42.0,30.12,NW,304,1.0,3.0,75,0.00,,,0.00,weatherlink.com 1.10,2013-09-23 08:05:00,
2013-09-23 04:20:00,49.5,41.0,30.12,WNW,293,1.0,3.0,73,0.00,,,0.00,weatherlink.com 1.10,2013-09-23 08:20:00,
2013-09-23 04:35:00,49.6,41.0,30.12,WNW,287,2.0,2.0,73,0.00,,,0.00,weatherlink.com 1.10,2013-09-23 08:35:00,
2013-09-23 04:50:00,49.4,41.0,30.12,WSW,242,1.0,4.0,74,0.00,,,0.00,weatherlink.com 1.10,2013-09-23 08:50:00,
2013-09-23 05:05:00,49.1,41.0,30.12,WSW,248,2.0,2.0,74,0.00,,,0.00,weatherlink.com 1.10,2013-09-23 09:05:00,
2013-09-23 05:20:00,48.7,42.0,30.13,WSW,248,0.0,1.0,77,0.00,,,0.00,weatherlink.com 1.10,2013-09-23 09:20:00,
2013-09-23 05:35:00,48.6,42.0,30.13,WSW,243,0.0,1.0,78,0.00,,,0.00,weatherlink.com 1.10,2013-09-23 09:35:00,
2013-09-23 05:50:00,48.5,42.0,30.13,WSW,248,1.0,2.0,78,0.00,,,0.00,weatherlink.com 1.10,2013-09-23 09:50:00,
2013-09-23 06:05:00,48.6,42.0,30.13,West,265,1.0,3.0,77,0.00,,,0.00,weatherlink.com 1.10,2013-09-23 10:05:00,
2013-09-23 06:20:00,48.7,42.0,30.13,West,267,1.0,3.0,77,0.00,,,0.00,weatherlink.com 1.10,2013-09-23 10:20:00,
2013-09-23 06:35:00,48.5,42.0,30.14,West,264,1.0,3.0,77,0.00,,,0.00,weatherlink.com 1.10,2013-09-23 10:35:00,
2013-09-23 06:50:00,48.3,42.0,30.14,West,278,1.0,2.0,78,0.00,,,0.00,weatherlink.com 1.10,2013-09-23 10:50:00,
2013-09-23 07:05:00,48.4,42.0,30.14,West,276,1.0,2.0,78,0.00,,,0.00,weatherlink.com 1.10,2013-09-23 11:05:00,
2013-09-23 07:20:00,48.5,42.0,30.15,SW,233,1.0,3.0,77,0.00,,,0.00,weatherlink.com 1.10,2013-09-23 11:20:00,
2013-09-23 07:35:00,48.3,42.0,30.16,WSW,250,2.0,3.0,79,0.00,,,0.00,weatherlink.com 1.10,2013-09-23 11:35:00,
2013-09-23 07:50:00,48.0,42.0,30.17,West,280,1.0,3.0,80,0.00,,,0.00,weatherlink.com 1.10,2013-09-23 11:50:00,
2013-09-23 08:05:00,48.2,42.0,30.18,WSW,245,2.0,3.0,79,0.00,,,0.00,weatherlink.com 1.10,2013-09-23 12:05:00,
2013-09-23 08:20:00,48.3,42.0,30.18,WNW,300,1.0,4.0,79,0.00,,,0.00,weatherlink.com 1.10,2013-09-23 12:20:00,
2013-09-23 08:35:00,48.5,42.0,30.18,West,277,2.0,5.0,78,0.00,,,0.00,weatherlink.com 1.10,2013-09-23 12:35:00,
2013-09-23 08:50:00,48.7,42.0,30.18,West,281,2.0,6.0,78,0.00,,,0.00,weatherlink.com 1.10,2013-09-23 12:50:00,
2013-09-23 09:05:00,48.9,43.0,30.18,WSW,253,1.0,3.0,79,0.00,,,0.00,weatherlink.com 1.10,2013-09-23 13:05:00,
2013-09-23 09:20:00,49.2,43.0,30.19,WSW,255,1.0,2.0,78,0.00,,,0.00,weatherlink.com 1.10,2013-09-23 13:20:00,
2013-09-23 09:35:00,49.5,43.0,30.19,West,263,1.0,2.0,79,0.00,,,0.00,weatherlink.com 1.10,2013-09-23 13:35:00,
2013-09-23 09:50:00,50.0,44.0,30.19,West,266,0.0,2.0,79,0.00,,,0.00,weatherlink.com 1.10,2013-09-23 13:50:00,
2013-09-23 10:05:00,50.9,44.0,30.19,West,260,0.0,2.0,78,0.00,,,0.00,weatherlink.com 1.10,2013-09-23 14:05:00,
2013-09-23 10:21:00,51.7,44.0,30.19,West,278,0.0,3.0,74,0.00,,,0.00,weatherlink.com 1.10,2013-09-23 14:21:00,
2013-09-23 10:36:00,52.3,44.0,30.20,West,264,3.0,4.0,72,0.00,,,0.00,weatherlink.com 1.10,2013-09-23 14:36:00,
2013-09-23 10:51:00,52.8,43.0,30.20,WNW,286,0.0,3.0,70,0.00,,,0.00,weatherlink.com 1.10,2013-09-23 14:51:00,
2013-09-23 11:06:00,53.2,44.0,30.20,SW,236,2.0,4.0,70,0.00,,,0.00,weatherlink.com 1.10,2013-09-23 15:06:00,
2013-09-23 11:21:00,54.2,43.0,30.20,NNE,29,0.0,1.0,66,0.00,,,0.00,weatherlink.com 1.10,2013-09-23 15:21:00,
2013-09-23 11:36:00,54.9,43.0,30.20,ESE,108,1.0,2.0,65,0.00,,,0.00,weatherlink.com 1.10,2013-09-23 15:36:00,
2013-09-23 11:51:00,54.6,43.0,30.20,East,99,1.0,2.0,64,0.00,,,0.00,weatherlink.com 1.10,2013-09-23 15:51:00,
2013-09-23 12:06:00,54.5,42.0,30.20,ENE,78,2.0,3.0,64,0.00,,,0.00,weatherlink.com 1.10,2013-09-23 16:06:00,
2013-09-23 12:21:00,54.4,43.0,30.20,ENE,57,2.0,3.0,66,0.00,,,0.00,weatherlink.com 1.10,2013-09-23 16:21:00,
2013-09-23 12:36:00,54.5,43.0,30.20,NE,47,3.0,4.0,65,0.00,,,0.00,weatherlink.com 1.10,2013-09-23 16:36:00,
2013-09-23 12:51:00,54.7,43.0,30.19,ENE,69,3.0,6.0,64,0.00,,,0.00,weatherlink.com 1.10,2013-09-23 16:51:00,
2013-09-23 13:06:00,54.8,44.0,30.18,NE,41,9.0,10.0,67,0.00,,,0.00,weatherlink.com 1.10,2013-09-23 17:06:00,
2013-09-23 13:21:00,54.8,44.0,30.19,North,360,6.0,9.0,66,0.00,,,0.00,weatherlink.com 1.10,2013-09-23 17:21:00,
2013-09-23 13:36:00,54.8,44.0,30.18,NE,43,5.0,9.0,66,0.00,,,0.00,weatherlink.com 1.10,2013-09-23 17:36:00,
2013-09-23 13:51:00,54.8,44.0,30.18,NE,39,7.0,9.0,68,0.00,,,0.00,weatherlink.com 1.10,2013-09-23 17:51:00,
2013-09-23 14:06:00,54.9,44.0,30.18,NE,43,6.0,7.0,66,0.00,,,0.00,weatherlink.com 1.10,2013-09-23 18:06:00,
2013-09-23 14:21:00,55.2,45.0,30.18,NE,47,8.0,9.0,68,0.00,,,0.00,weatherlink.com 1.10,2013-09-23 18:21:00,
2013-09-23 14:36:00,55.2,44.0,30.18,NE,53,10.0,10.0,67,0.00,,,0.00,weatherlink.com 1.10,2013-09-23 18:36:00,
2013-09-23 14:51:00,55.4,44.0,30.18,ENE,62,6.0,10.0,66,0.00,,,0.00,weatherlink.com 1.10,2013-09-23 18:51:00,
2013-09-23 15:21:00,55.5,45.0,30.17,ENE,67,11.0,11.0,68,0.00,,,0.00,weatherlink.com 1.10,2013-09-23 19:21:00,
2013-09-23 15:36:00,55.7,47.0,30.17,ENE,57,10.0,11.0,73,0.00,,,0.00,weatherlink.com 1.10,2013-09-23 19:36:00,
2013-09-23 15:51:00,55.9,46.0,30.16,ENE,57,10.0,11.0,70,0.00,,,0.00,weatherlink.com 1.10,2013-09-23 19:51:00,
2013-09-23 16:06:00,56.2,46.0,30.15,ENE,67,10.0,11.0,69,0.00,,,0.00,weatherlink.com 1.10,2013-09-23 20:06:00,
2013-09-23 16:21:00,56.3,46.0,30.15,East,83,9.0,12.0,68,0.00,,,0.00,weatherlink.com 1.10,2013-09-23 20:21:00,
2013-09-23 16:36:00,56.7,45.0,30.15,ENE,77,8.0,11.0,66,0.00,,,0.00,weatherlink.com 1.10,2013-09-23 20:36:00,
2013-09-23 16:51:00,56.9,45.0,30.15,ENE,65,10.0,11.0,65,0.00,,,0.00,weatherlink.com 1.10,2013-09-23 20:51:00,
2013-09-23 17:06:00,57.0,46.0,30.14,East,87,11.0,11.0,67,0.00,,,0.00,weatherlink.com 1.10,2013-09-23 21:06:00,
2013-09-23 17:21:00,57.3,46.0,30.15,ENE,75,8.0,10.0,66,0.00,,,0.00,weatherlink.com 1.10,2013-09-23 21:21:00,
2013-09-23 17:36:00,57.3,46.0,30.15,East,86,7.0,9.0,65,0.00,,,0.00,weatherlink.com 1.10,2013-09-23 21:36:00,
2013-09-23 17:51:00,57.4,46.0,30.14,East,81,8.0,9.0,67,0.00,,,0.00,weatherlink.com 1.10,2013-09-23 21:51:00,
2013-09-23 18:06:00,57.4,47.0,30.14,East,85,7.0,9.0,68,0.00,,,0.00,weatherlink.com 1.10,2013-09-23 22:06:00,
2013-09-23 18:21:00,57.5,47.0,30.14,East,83,7.0,9.0,68,0.00,,,0.00,weatherlink.com 1.10,2013-09-23 22:21:00,
2013-09-23 18:36:00,57.5,47.0,30.14,ENE,73,8.0,10.0,68,0.00,,,0.00,weatherlink.com 1.10,2013-09-23 22:36:00,
2013-09-23 18:51:00,57.6,48.0,30.14,East,79,8.0,8.0,70,0.00,,,0.00,weatherlink.com 1.10,2013-09-23 22:51:00,
2013-09-23 19:07:00,57.4,47.0,30.14,ENE,63,6.0,8.0,69,0.00,,,0.00,weatherlink.com 1.10,2013-09-23 23:07:00,
2013-09-23 19:22:00,57.1,47.0,30.14,ENE,78,7.0,9.0,69,0.00,,,0.00,weatherlink.com 1.10,2013-09-23 23:22:00,
2013-09-23 19:37:00,57.2,47.0,30.14,ENE,77,8.0,8.0,70,0.00,,,0.00,weatherlink.com 1.10,2013-09-23 23:37:00,
2013-09-23 19:52:00,57.3,47.0,30.13,ENE,65,6.0,8.0,69,0.00,,,0.00,weatherlink.com 1.10,2013-09-23 23:52:00,
2013-09-23 20:07:00,57.5,49.0,30.13,East,81,7.0,9.0,72,0.00,,,0.00,weatherlink.com 1.10,2013-09-24 00:07:00,
2013-09-23 20:22:00,57.5,48.0,30.13,ENE,78,8.0,10.0,70,0.00,,,0.00,weatherlink.com 1.10,2013-09-24 00:22:00,
2013-09-23 20:37:00,57.5,48.0,30.13,East,85,9.0,10.0,71,0.00,,,0.00,weatherlink.com 1.10,2013-09-24 00:37:00,
2013-09-23 20:52:00,57.6,49.0,30.13,East,98,12.0,12.0,73,0.00,,,0.00,weatherlink.com 1.10,2013-09-24 00:52:00,
2013-09-23 21:07:00,57.6,49.0,30.13,East,85,11.0,11.0,72,0.00,,,0.00,weatherlink.com 1.10,2013-09-24 01:07:00,
2013-09-23 21:22:00,57.5,49.0,30.13,ENE,77,11.0,13.0,72,0.00,,,0.00,weatherlink.com 1.10,2013-09-24 01:22:00,
2013-09-23 21:37:00,57.6,49.0,30.13,ESE,105,9.0,11.0,72,0.00,,,0.00,weatherlink.com 1.10,2013-09-24 01:37:00,
2013-09-23 21:52:00,57.5,49.0,30.13,East,91,9.0,11.0,72,0.00,,,0.00,weatherlink.com 1.10,2013-09-24 01:52:00,
2013-09-23 22:07:00,57.4,48.0,30.13,East,84,10.0,-999.0,72,-99.99,,,0.00,weatherlink.com 1.10,2013-09-24 02:07:00,
2013-09-23 22:22:00,57.3,49.0,30.14,East,96,14.0,14.0,75,0.00,,,0.00,weatherlink.com 1.10,2013-09-24 02:22:00,
2013-09-23 22:37:00,57.2,51.0,30.13,East,97,14.0,15.0,79,0.00,,,0.00,weatherlink.com 1.10,2013-09-24 02:37:00,
2013-09-23 22:52:00,56.7,51.0,30.13,ESE,105,13.0,14.0,80,0.00,,,0.00,weatherlink.com 1.10,2013-09-24 02:52:00,
2013-09-23 23:07:00,55.9,50.0,30.14,SE,124,12.0,15.0,81,0.00,,,0.00,weatherlink.com 1.10,2013-09-24 03:07:00,
2013-09-23 23:22:00,54.4,48.0,30.14,SE,139,11.0,13.0,80,0.00,,,0.00,weatherlink.com 1.10,2013-09-24 03:22:00,
2013-09-23 23:37:00,54.3,49.0,30.14,ESE,121,11.0,13.0,82,0.00,,,0.00,weatherlink.com 1.10,2013-09-24 03:37:00,
2013-09-23 23:52:00,54.2,49.0,30.14,SE,136,11.0,14.0,82,0.00,,,0.00,weatherlink.com 1.10,2013-09-24 03:52:00,